Temperature
20 19 19 19 19 19 19 19 19 19 19 19 19 19 19 19 19 19 19 19 19 19 19 19 19 19 19 19 19 19 19 19 19 19 19 19 19 19 19 19 19 19 18
20 20 19 19 19 19 19 19 19 19 19 19 19 19 19 19 19 19 19 19 19 19 19 19 19 19 19 19 19 19 19 19 19 19 19 19 19 19 19 19 19 19 18
20 20 19 19 19 19 19 19 19 19 19 19 19 19 19 19 19 19 19 19 19 19 19 19 19 19 19 18 18 19 19 19 19 19 19 19 19 19 19 19 19 19 18
20 20 19 19 19 19 19 19 19 19 19 19 18 18 18 18 19 19 19 19 19 19 19 18 18 18 18 18 18 18 18 18 19 19 19 19 19 19 19 19 19 19 18
20 20 19 19 19 19 19 19 19 19 18 18 18 18 18 18 18 19 19 19 19 18 18 18 18 18 18 18 18 18 18 18 18 19 19 19 19 19 19 19 19 18 18
20 19 19 19 19 19 19 19 18 18 18 18 18 18 18 18 18 18 19 19 18 18 18 18 18 18 18 18 18 18 18 18 19 19 19 19 19 19 19 18 18 18 18
20 19 19 19 19 19 19 18 18 18 18 18 18 18 18 18 18 18 18 19 18 18 18 18 18 18 18 18 18 18 18 18 19 19 19 19 18 18 18 18 18 18 18
20 20 19 19 19 19 18 18 18 18 18 18 18 18 18 18 18 18 18 18 18 18 18 17 17 18 18 18 18 18 18 18 18 18 18 18 18 18 18 18 18 18 18
19 20 19 19 19 19 18 18 18 18 18 18 18 18 18 18 18 18 18 18 18 18 18 17 17 17 17 17 17 17 17 18 18 18 18 18 18 18 18 18 18 18 18
19 19 20 19 19 19 19 18 18 18 18 18 18 18 18 18 18 18 18 18 18 18 18 17 17 17 17 17 17 17 17 17 17 17 18 18 18 18 18 18 18 18 18
19 19 20 20 19 19 19 19 18 18 18 18 18 18 18 18 18 18 18 18 18 18 17 17 17 17 17 17 17 17 17 17 17 17 17 18 18 18 18 18 18 18 18
20 20 20 20 20 19 19 19 19 18 18 18 18 18 18 18 18 18 18 18 18 17 17 17 17 17 17 17 17 17 17 17 17 17 17 17 18 18 18 18 18 18 18
20 20 20 20 20 19 19 19 19 19 19 18 18 18 18 18 18 18 18 18 17 17 17 17 17 16 17 17 16 16 16 16 16 17 17 17 17 17 18 18 18 18 17
21 20 20 20 20 20 19 19 19 19 19 19 19 18 18 18 18 18 18 18 17 17 17 17 17 17 17 17 17 16 16 16 16 16 16 16 17 17 17 17 17 17 17
21 21 20 20 20 20 20 20 19 19 19 19 19 18 18 18 18 18 18 17 17 17 17 17 17 17 17 17 17 16 16 16 16 16 16 16 16 17 17 17 17 17 17
22 21 21 21 20 20 20 20 20 20 19 19 19 18 18 18 18 18 18 17 17 17 17 17 17 17 17 17 17 16 16 16 16 16 16 16 16 16 16 16 16 16 16
23 22 22 21 21 21 20 20 20 20 19 19 19 18 18 18 17 17 18 17 17 17 17 17 17 17 17 17 16 16 16 16 16 16 16 16 16 16 16 16 16 16 16
23 23 22 22 21 21 21 21 20 20 20 19 19 18 18 18 17 17 17 17 17 17 17 17 17 17 17 17 16 16 16 16 16 16 16 16 16 16 16 16 16 16 16
23 23 23 22 22 22 21 21 20 20 20 19 19 18 18 18 17 17 17 17 17 17 17 17 17 17 17 16 16 16 16 16 16 16 16 16 16 16 16 16 16 16 16
23 23 23 23 22 22 21 20 20 20 20 19 19 19 18 18 18 17 17 17 17 17 17 17 17 16 16 16 16 16 16 16 16 16 16 16 16 16 16 16 16 16 16
23 23 23 23 22 22 21 21 20 20 20 19 19 19 18 18 18 18 17 17 17 17 17 17 17 16 16 16 16 16 16 16 16 15 15 15 16 16 16 16 16 16 16
24 24 24 23 23 22 22 21 21 20 20 19 19 19 18 18 18 18 17 17 17 17 17 17 17 16 16 16 16 16 16 15 15 15 15 15 15 15 15 15 16 16 16
24 24 24 23 23 22 22 21 20 20 20 19 19 19 18 18 18 17 17 17 17 17 17 17 17 16 16 16 16 16 16 16 16 16 16 15 15 15 15 15 15 15 16
23 23 23 22 22 22 21 20 20 20 20 19 19 18 18 18 17 17 17 17 17 17 17 16 16 16 16 16 15 15 16 16 16 16 16 15 15 15 15 15 15 15 15
21 21 21 21 20 20 20 20 19 19 19 19 18 18 18 17 17 17 17 17 17 16 16 16 16 16 16 16 15 15 15 15 15 16 16 16 15 15 15 15 15 15 15
20 20 20 19 19 19 19 19 18 18 18 18 18 18 17 17 17 17 17 16 16 16 16 16 16 16 16 15 15 15 15 15 15 15 16 16 16 16 15 15 15 15 15
Wind_Speed
5 7 12 12 12 11 12 13 13 13 13 14 14 14 13 13 12 12 11 11 10 9 9 9 9 9 9 9 9 9 10 10 10 10 10 9 7 6 6 7 6 5 5
9 10 14 13 12 12 12 12 12 13 13 13 13 13 13 12 12 11 11 10 10 9 9 9 9 9 9 9 9 9 9 9 10 9 9 8 7 7 7 7 5 4 5
11 11 14 14 13 12 12 12 12 12 12 13 13 13 12 11 11 10 10 10 10 9 9 9 9 9 9 8 8 7 8 8 9 8 8 7 6 7 6 6 6 5 5
12 11 13 14 13 12 12 12 12 12 12 12 12 12 12 11 10 10 9 9 9 9 9 9 9 9 9 8 7 6 7 7 8 8 6 5 4 6 6 6 6 6 7
9 11 13 15 14 13 12 12 11 11 11 11 11 11 11 10 9 9 9 8 8 8 9 9 9 9 9 8 7 6 6 7 8 8 6 5 5 5 6 5 6 7 8
9 10 13 15 14 13 12 12 11 11 11 11 11 11 11 10 9 8 8 7 7 7 8 8 9 9 9 8 7 6 7 8 9 8 6 5 4 5 6 5 6 7 8
9 9 12 15 14 13 12 12 11 11 11 11 11 11 11 10 9 8 7 6 6 6 6 7 8 9 9 8 8 8 8 9 8 7 5 4 3 4 5 6 6 7 8
10 9 12 15 14 13 13 12 11 11 11 11 11 11 11 10 9 8 7 6 5 5 5 6 8 8 9 8 8 7 8 8 7 6 4 3 3 5 5 6 7 8 8
8 7 8 12 13 14 13 12 12 11 11 11 11 11 10 9 8 8 6 5 4 3 4 5 7 8 8 8 7 6 8 9 7 5 4 2 4 5 6 6 7 8 8
7 7 6 8 10 11 12 13 13 12 11 11 11 11 10 9 8 7 6 5 4 3 3 4 6 7 7 7 7 8 9 8 7 6 4 3 5 6 6 7 7 7 7
7 6 7 6 8 9 10 12 13 13 12 12 11 11 10 8 6 6 6 6 5 3 2 3 5 6 7 7 6 7 8 6 5 5 4 4 5 6 7 7 8 7 7
10 9 7 7 7 8 9 9 9 10 11 10 10 10 9 8 6 5 5 6 5 3 2 3 4 6 6 6 6 6 6 5 5 4 3 3 5 6 6 7 7 7 7
9 10 10 8 7 7 5 7 7 8 9 9 10 10 9 7 5 4 2 1 1 2 3 4 5 4 4 4 5 6 5 5 4 4 3 1 3 4 5 6 6 6 6
9 10 10 10 8 7 6 5 6 5 6 7 9 11 9 5 4 3 3 2 1 1 2 3 3 2 2 4 5 6 5 4 3 3 3 1 3 4 5 5 5 5 5
11 11 11 11 9 7 6 5 5 5 6 8 9 11 10 5 4 3 3 3 2 2 1 1 2 1 2 4 5 5 4 4 4 4 4 4 3 3 4 5 5 5 5
13 13 11 12 11 9 8 6 6 6 7 8 9 11 12 8 5 4 3 3 4 4 3 2 1 1 2 4 4 5 4 4 4 4 5 6 6 5 4 4 5 5 4
13 13 13 13 12 11 10 9 6 6 8 6 8 11 12 10 8 5 4 4 4 5 4 2 2 3 3 3 4 4 3 3 3 4 5 6 6 7 6 5 5 5 5
10 12 14 13 13 13 11 9 5 6 7 7 9 11 12 12 11 6 5 5 5 5 4 3 3 3 3 4 4 3 2 2 3 3 4 5 6 6 6 6 6 5 5
13 13 14 13 14 14 11 8 6 5 6 7 9 9 11 13 13 8 5 5 5 3 3 3 3 3 4 4 4 2 2 2 1 2 3 4 5 6 6 7 7 7 6
14 14 14 14 12 11 9 6 5 5 5 5 6 8 11 12 13 10 5 5 5 3 4 4 4 3 3 4 4 2 1 0 0 1 1 2 3 4 4 5 6 7 7
15 16 16 15 13 11 8 7 6 6 5 5 5 8 10 11 11 9 6 6 5 5 5 5 4 4 3 3 4 2 2 1 1 1 1 1 1 1 1 2 3 4 5
18 18 17 16 14 12 10 7 4 3 3 3 3 4 8 9 9 9 7 6 7 6 6 6 5 4 3 4 4 3 1 2 2 2 2 3 3 2 2 2 1 1 1
15 16 15 14 12 10 8 5 4 4 3 2 3 4 5 7 8 7 7 6 7 7 7 8 7 7 5 3 2 4 4 5 3 2 3 4 4 3 3 4 4 3 2
9 9 10 10 10 9 9 7 5 5 5 5 3 3 4 5 6 7 6 6 7 6 7 8 7 6 6 5 3 1 2 3 3 2 2 3 4 5 5 4 5 7 5
2 6 8 10 9 8 7 6 4 3 3 2 2 3 4 4 5 6 6 6 6 6 7 7 8 8 6 6 5 3 2 1 1 3 3 2 2 4 5 5 6 8 9
9 9 11 12 9 6 5 3 5 6 5 4 4 3 3 2 3 4 5 5 6 6 7 7 8 9 8 7 6 5 5 3 4 3 3 3 3 3 4 4 5 8 10
Wind_Direction
166 171 159 144 139 134 130 129 128 126 124 122 119 116 113 108 103 99 95 92 89 88 90 94 98 100 97 99 105 114 119 121 120 119 116 113 112 114 121 120 113 111 115
151 162 157 149 143 137 133 132 132 130 127 125 123 120 115 111 106 102 98 95 91 89 89 94 98 99 98 97 102 113 118 118 118 117 111 104 102 102 106 111 110 110 111
145 157 155 153 147 142 139 138 136 134 133 131 128 125 120 115 111 107 101 97 93 89 88 91 95 96 95 94 100 111 119 120 121 115 101 93 96 98 99 101 105 104 105
148 153 155 157 152 147 145 142 141 139 138 137 135 131 125 120 115 111 106 100 95 91 87 87 90 92 93 91 92 105 119 125 124 115 99 90 94 105 103 101 105 105 104
146 149 160 160 157 153 151 149 147 145 143 141 140 136 130 124 120 116 112 105 99 93 88 83 82 84 83 80 78 90 111 120 121 113 106 89 86 111 110 111 112 112 108
144 149 165 163 161 159 157 156 154 151 148 147 144 140 135 131 127 123 118 113 107 99 90 80 76 75 72 67 64 75 98 103 101 105 107 103 103 120 113 114 118 120 115
146 153 167 166 166 165 164 163 161 159 157 154 150 144 142 139 136 133 128 123 117 106 92 77 70 70 65 58 56 71 92 94 93 95 100 107 125 135 127 124 124 125 119
154 157 170 171 170 170 171 170 168 166 164 161 155 149 148 145 142 142 140 137 130 113 92 73 65 63 59 52 53 69 86 90 88 83 90 109 148 149 144 139 132 129 125
156 158 167 172 174 175 175 175 173 172 170 165 160 155 153 150 149 151 151 152 146 126 95 71 63 61 57 52 54 79 91 88 82 74 82 108 144 143 138 136 134 133 130
158 165 163 168 169 172 176 178 177 176 174 169 164 161 160 158 159 162 161 164 163 149 108 74 64 64 61 57 69 93 93 84 75 67 61 104 126 127 126 128 131 133 132
174 173 168 166 166 167 173 182 179 178 177 173 170 169 161 155 157 161 169 177 175 159 120 78 66 68 64 57 76 94 89 82 73 57 45 102 113 115 119 123 128 130 133
188 186 178 176 169 169 178 178 172 172 173 168 166 162 152 154 160 163 187 191 183 163 113 66 53 64 68 63 75 91 88 78 62 39 31 99 115 113 117 121 126 131 135
190 190 187 183 176 174 173 165 163 161 161 162 163 159 156 158 163 162 179 226 72 86 56 35 41 53 69 83 87 97 92 75 54 27 3 102 121 118 119 122 127 134 140
183 193 188 186 183 183 176 168 165 162 164 166 168 166 160 160 167 172 181 200 124 75 42 11 14 20 78 112 112 108 97 82 61 34 7 73 122 129 128 131 133 139 142
191 195 190 186 186 184 180 177 174 175 175 175 173 176 174 171 180 185 193 200 200 183 193 308 332 337 131 139 133 124 109 92 76 57 38 54 74 109 127 126 133 135 139
199 196 190 188 188 184 187 187 183 182 180 177 181 185 186 187 186 187 196 204 210 197 197 225 262 130 133 135 129 126 115 99 83 68 57 57 64 74 99 114 115 121 128
203 197 192 191 187 188 191 193 188 186 182 183 189 192 194 197 198 195 200 213 214 191 179 172 114 105 113 121 126 124 118 110 95 74 65 62 62 64 75 94 105 107 114
206 200 199 197 191 192 193 193 189 186 187 190 191 194 200 204 205 199 205 222 215 181 165 157 139 120 131 141 142 141 129 125 110 90 73 66 66 64 68 81 85 91 98
211 203 200 200 192 193 191 189 189 183 192 193 191 195 202 206 207 201 210 223 209 178 172 174 156 151 160 160 151 134 138 146 143 118 84 68 69 72 68 70 73 74 80
213 206 203 201 194 184 178 173 179 190 199 194 195 200 201 205 205 202 208 218 199 189 189 178 164 148 146 151 137 101 64 231 205 149 124 85 70 68 72 72 67 62 62
212 207 204 199 192 178 176 180 186 201 200 203 204 203 202 201 200 199 206 204 194 201 202 178 155 148 131 131 106 77 24 2 244 241 205 160 155 75 92 82 71 64 52
215 208 203 199 191 185 187 179 167 160 184 203 204 201 203 199 195 201 199 198 196 197 193 181 161 153 153 159 136 124 99 329 288 226 215 214 209 211 221 213 178 96 59
217 208 199 193 183 175 164 144 118 108 105 151 197 207 203 198 197 200 197 195 194 192 196 191 179 167 167 181 179 155 162 211 243 268 228 219 208 210 229 233 224 221 221
219 198 183 167 153 147 147 161 169 179 197 204 193 195 193 193 197 203 201 196 196 194 196 196 186 178 165 175 185 178 157 159 167 215 274 231 215 218 222 226 224 224 225
104 122 122 111 109 118 132 151 177 204 213 162 151 179 190 195 199 202 203 197 199 199 200 194 187 186 182 178 175 159 138 142 162 157 210 237 236 230 218 217 221 221 223
65 85 97 99 91 94 109 146 207 207 191 168 174 180 186 192 209 209 201 201 201 200 201 199 194 192 194 188 184 175 169 177 192 181 179 200 224 242 224 215 216 218 217
Height
1509 1512 1514 1517 1519 1520 1522 1523 1525 1526 1527 1527 1528 1529 1530 1531 1531 1532 1533 1533 1534 1534 1535 1535 1536 1537 1538 1539 1539 1540 1541 1542 1543 1544 1545 1545 1545 1546 1546 1546 1546 1546 1547
1509 1512 1515 1517 1519 1522 1523 1525 1526 1527 1528 1529 1530 1530 1531 1532 1533 1533 1534 1534 1535 1535 1536 1536 1537 1538 1538 1539 1540 1541 1542 1543 1544 1545 1546 1546 1547 1547 1547 1547 1547 1547 1548
1509 1512 1515 1518 1520 1522 1524 1525 1527 1528 1529 1530 1531 1531 1532 1533 1534 1534 1535 1535 1536 1536 1537 1537 1538 1539 1539 1540 1541 1542 1543 1544 1545 1546 1547 1547 1548 1548 1548 1548 1548 1548 1549
1510 1513 1515 1518 1520 1522 1524 1526 1527 1528 1529 1530 1531 1532 1533 1534 1534 1535 1536 1536 1537 1537 1538 1538 1539 1539 1540 1541 1542 1543 1545 1546 1546 1547 1548 1548 1549 1549 1549 1549 1549 1550 1550
1511 1513 1516 1518 1521 1523 1525 1526 1527 1529 1530 1531 1532 1533 1534 1534 1535 1536 1536 1537 1538 1538 1539 1539 1540 1540 1541 1542 1543 1544 1546 1547 1548 1548 1549 1549 1550 1550 1550 1550 1551 1551 1551
1511 1514 1516 1519 1521 1523 1525 1526 1527 1529 1530 1531 1532 1533 1534 1535 1536 1536 1537 1538 1539 1539 1540 1540 1541 1541 1542 1543 1544 1545 1546 1548 1548 1549 1550 1550 1550 1551 1551 1551 1552 1552 1553
1512 1514 1517 1519 1521 1523 1525 1526 1528 1529 1530 1531 1533 1534 1534 1535 1536 1537 1538 1539 1539 1540 1541 1541 1542 1542 1543 1544 1545 1546 1547 1548 1548 1549 1550 1550 1551 1552 1552 1552 1553 1553 1554
1512 1514 1517 1519 1521 1523 1524 1526 1527 1529 1530 1531 1533 1534 1535 1536 1536 1537 1538 1539 1540 1541 1542 1542 1543 1543 1544 1545 1546 1547 1548 1548 1549 1549 1550 1551 1551 1552 1553 1553 1554 1554 1555
1513 1515 1517 1519 1520 1522 1524 1526 1527 1529 1530 1532 1533 1534 1535 1536 1537 1538 1539 1540 1541 1542 1543 1543 1544 1544 1545 1546 1547 1548 1549 1549 1550 1550 1550 1551 1551 1552 1553 1553 1554 1555 1555
1514 1515 1517 1518 1520 1522 1524 1525 1527 1529 1530 1532 1533 1534 1535 1536 1537 1538 1539 1540 1541 1542 1543 1544 1544 1545 1546 1547 1549 1549 1550 1550 1550 1550 1551 1551 1552 1552 1553 1554 1554 1555 1556
1513 1514 1516 1518 1519 1521 1523 1525 1526 1528 1530 1531 1533 1534 1535 1537 1538 1539 1540 1541 1542 1543 1544 1545 1545 1546 1547 1549 1549 1550 1551 1551 1551 1551 1551 1551 1552 1552 1553 1554 1555 1555 1556
1512 1513 1515 1516 1518 1520 1522 1524 1525 1527 1529 1531 1532 1534 1535 1537 1538 1539 1540 1541 1542 1543 1544 1545 1546 1547 1548 1549 1550 1551 1551 1551 1551 1551 1551 1552 1552 1553 1553 1554 1555 1555 1556
1511 1513 1514 1515 1517 1519 1521 1523 1524 1526 1528 1530 1532 1533 1535 1536 1537 1539 1540 1541 1543 1544 1545 1546 1548 1549 1550 1550 1551 1552 1552 1551 1551 1551 1551 1552 1552 1553 1553 1554 1555 1555 1556
1510 1512 1514 1515 1516 1518 1520 1522 1523 1525 1527 1529 1531 1532 1534 1536 1537 1539 1540 1542 1543 1545 1546 1548 1549 1550 1550 1551 1552 1552 1551 1551 1551 1551 1551 1552 1552 1553 1553 1554 1554 1555 1556
1509 1511 1513 1514 1515 1517 1519 1520 1522 1524 1526 1528 1530 1532 1534 1535 1537 1539 1540 1542 1544 1545 1547 1548 1549 1550 1551 1551 1552 1552 1551 1551 1551 1551 1551 1552 1552 1553 1553 1553 1554 1555 1555
1507 1509 1511 1513 1515 1516 1518 1519 1521 1523 1525 1527 1529 1531 1533 1535 1537 1538 1540 1542 1544 1545 1547 1548 1549 1550 1551 1551 1552 1552 1552 1551 1551 1551 1551 1552 1552 1553 1553 1553 1554 1554 1555
1506 1508 1510 1512 1513 1515 1517 1518 1520 1522 1524 1525 1527 1530 1532 1534 1536 1538 1539 1541 1543 1545 1547 1548 1549 1550 1551 1551 1552 1552 1552 1552 1552 1552 1552 1552 1552 1552 1553 1553 1554 1554 1554
1505 1507 1508 1510 1511 1513 1515 1517 1519 1521 1523 1524 1526 1528 1531 1533 1535 1537 1538 1540 1543 1544 1546 1547 1548 1549 1550 1551 1551 1552 1552 1552 1552 1552 1552 1552 1552 1553 1553 1553 1554 1554 1554
1502 1504 1506 1508 1509 1511 1514 1516 1518 1520 1522 1523 1525 1527 1529 1531 1533 1535 1537 1539 1541 1543 1544 1546 1547 1548 1549 1550 1551 1551 1552 1552 1552 1552 1553 1553 1553 1553 1553 1553 1553 1554 1554
1498 1501 1503 1505 1507 1509 1512 1514 1516 1518 1520 1522 1524 1525 1527 1529 1531 1532 1534 1536 1538 1540 1542 1543 1545 1546 1547 1549 1550 1550 1551 1551 1552 1552 1552 1552 1553 1553 1553 1553 1553 1553 1554
1493 1495 1497 1500 1503 1505 1508 1510 1513 1515 1518 1520 1522 1524 1525 1527 1528 1529 1531 1533 1535 1537 1538 1540 1542 1544 1545 1546 1548 1549 1549 1550 1550 1551 1551 1552 1552 1552 1552 1552 1553 1553 1553
1485 1487 1491 1494 1498 1501 1504 1507 1510 1513 1515 1518 1520 1522 1523 1524 1525 1526 1528 1529 1531 1533 1534 1536 1538 1540 1542 1544 1545 1546 1547 1549 1548 1549 1549 1550 1551 1551 1551 1552 1552 1552 1553
1478 1480 1483 1487 1491 1496 1500 1504 1507 1509 1512 1515 1517 1519 1520 1521 1522 1523 1524 1526 1527 1528 1530 1532 1534 1536 1538 1540 1542 1544 1544 1544 1545 1546 1547 1548 1549 1550 1550 1551 1551 1552 1552
1472 1474 1478 1482 1486 1491 1496 1500 1504 1507 1510 1512 1514 1515 1517 1518 1519 1520 1521 1522 1523 1524 1526 1527 1529 1531 1533 1535 1537 1539 1541 1542 1543 1543 1545 1545 1547 1548 1549 1550 1550 1551 1551
1469 1471 1474 1478 1483 1487 1493 1497 1501 1504 1507 1509 1510 1512 1513 1514 1515 1516 1517 1518 1519 1520 1521 1523 1524 1526 1528 1529 1531 1534 1536 1538 1540 1541 1541 1542 1544 1545 1546 1548 1549 1550 1550
1468 1470 1472 1476 1481 1486 1490 1495 1499 1503 1505 1506 1507 1509 1510 1511 1512 1513 1514 1515 1515 1516 1517 1518 1520 1521 1522 1524 1527 1528 1530 1533 1534 1537 1538 1539 1540 1542 1543 1545 1546 1547 1548